Date,Time,Air Temperature,Dewpoint,Windchill,Heat Index,RH,3m Max Wind Speed,3m Mean Wind Speed,3m Wind Direction,Rain,Solar Radiation
,,F,F,F,F,%,MPH,MPH,deg,in,MJ/m^2
2024-04-11,14:55,74.5,23.9,74.5,74.5,15.0,21.5,15.8,153.5,0.0,0.2328958
2024-04-11,15:00,75.7,25.5,75.7,75.7,15.5,20.3,14.4,155.1,0.0,0.2298654
2024-04-11,15:05,74.8,26.9,74.8,74.8,16.9,23.2,16.8,149.7,0.0,0.2269642
2024-04-11,15:10,75.5,24.4,75.5,75.5,14.8,21.2,16.2,167.9,0.0,0.2243286
2024-04-11,15:15,74.9,26.8,74.9,74.9,16.8,19.2,14.6,158,0.0,0.2206691
2024-04-11,15:20,75.2,25.1,75.2,75.2,15.5,24.6,16.7,152.5,0.0,0.2179563
2024-04-11,15:25,75,26.7,75.0,75,16.7,21.9,18.7,150.3,0.0,0.21413
2024-04-11,15:30,75.8,27.3,75.8,75.8,16.6,22.3,17.9,139.9,0.0,0.2112412
2024-04-11,15:35,76.6,29.9,76.6,76.6,18.0,22.3,16.4,152.3,0.0,0.2083508
2024-04-11,15:40,76.3,22.9,76.3,76.3,13.6,26.5,18,167.5,0.0,0.2043245
2024-04-11,15:45,75.8,27.5,75.8,75.8,16.7,16.9,14,153.9,0.0,0.2008231
2024-04-11,15:50,76.1,24,76.1,76.1,14.3,23.3,18,156,0.0,0.1975834
2024-04-11,15:55,76,24,76.0,76,14.4,22.6,16.9,153.2,0.0,0.1938057
2024-04-11,16:00,76.7,23.5,76.7,76.7,13.8,23,16.7,163,0.0,0.1897848
2024-04-11,16:05,75.7,25,75.7,75.7,15.1,19.2,13.9,156.8,0.0,0.1856636
2024-04-11,16:10,75.9,24.5,75.9,75.9,14.7,24.6,15.8,154.5,0.0,0.1817411
2024-04-11,16:15,76,25.1,76.0,76,15.1,22.3,15.8,156.2,0.0,0.1771083
2024-04-11,16:20,76.4,26.3,76.4,76.4,15.6,23,17.3,154.3,0.0,0.1734507
2024-04-11,16:25,76.3,25.3,76.3,76.3,15.1,20.5,15.8,142.5,0.0,0.1683811
2024-04-11,16:30,77.3,24.2,77.3,77.3,13.9,23,14.1,145.7,0.0,0.1645892
2024-04-11,16:35,76.4,26,76.4,76.4,15.4,20.3,15.6,152,0.0,0.1602856
2024-04-11,16:40,76.9,23.2,76.9,76.9,13.5,20.1,14.6,156.2,0.0,0.1545726
2024-04-11,16:45,76,25.2,76.0,76,15.1,22.4,16.1,143.8,0.0,0.1498168
2024-04-11,16:50,76.5,25,76.5,76.5,14.7,23.2,18.1,153.4,0.0,0.1459162
2024-04-11,16:55,76.9,22.8,76.9,76.9,13.3,21.4,16,156.7,0.0,0.140997
2024-04-11,17:00,76.7,24.2,76.7,76.7,14.2,20.8,16.3,162.9,0.0,0.1356507
2024-04-11,17:05,76.7,23.8,76.7,76.7,13.9,20.5,16.3,151.8,0.0,0.1305311
2024-04-11,17:10,76.6,24.7,76.6,76.6,14.5,22.3,17.6,156.6,0.0,0.1260498
2024-04-11,17:15,77,23.6,77.0,77,13.7,19.4,16.8,149.2,0.0,0.1216453
2024-04-11,17:20,76.9,25.3,76.9,76.9,14.7,21,15.5,143.8,0.0,0.116342
2024-04-11,17:25,76.8,25.3,76.8,76.8,14.8,22.8,15.8,155.1,0.0,0.11136
2024-04-11,17:30,76.4,25,76.4,76.4,14.8,20.8,14.5,150.4,0.0,0.1066089
2024-04-11,17:35,76.8,27.4,76.8,76.8,16.2,17.2,14.2,152.5,0.0,0.1008645
2024-04-11,17:40,77,24.8,77.0,77,14.4,22.1,17,146.9,0.0,0.09398027
2024-04-11,17:45,76.3,26.1,76.3,76.3,15.6,21.2,16.6,152.4,0.0,0.0435269
2024-04-11,17:50,76.4,24.9,76.4,76.4,14.7,19.8,15.1,151.9,0.0,0.01389181
2024-04-11,17:55,76.2,26.5,76.2,76.2,15.9,21.5,15.9,144.3,0.0,0.01363278
2024-04-11,18:00,76.5,22.9,76.5,76.5,13.5,19.8,16.7,150.8,0.0,0.02031878
2024-04-11,18:05,76.3,25.7,76.3,76.3,15.3,18.7,16,150.9,0.0,0.02603464
2024-04-11,18:10,75.8,24.7,75.8,75.8,14.9,19.4,17.1,147.8,0.0,0.05936379
2024-04-11,18:15,75.7,26.9,75.7,75.7,16.4,19.8,15.7,141.5,0.0,0.05226706
2024-04-11,18:20,75.7,26.2,75.7,75.7,15.9,20.6,16.8,149.5,0.0,0.02519832
2024-04-11,18:25,75.8,23.4,75.8,75.8,14.1,20.1,15.9,149.8,0.0,0.04923058
2024-04-11,18:30,75.8,23.7,75.8,75.8,14.3,19.9,16.9,151.9,0.0,0.04456906
2024-04-11,18:35,75.2,24.7,75.2,75.2,15.3,20.8,16.1,144.9,0.0,0.04019216
2024-04-11,18:40,75.3,23.8,75.3,75.3,14.6,21,17.8,151.5,0.0,0.03563834
2024-04-11,18:45,75.2,24,75.2,75.2,14.8,18.9,16.1,150.5,0.0,0.03070564
2024-04-11,18:50,74.4,24.8,74.4,74.4,15.7,18,15,149.9,0.0,0.02560039
2024-04-11,18:55,74.3,23.7,74.3,74.3,15.0,19.6,15.3,150.6,0.0,0.01986656
2024-04-11,19:00,74,22.8,74.0,74,14.6,18,14.7,151.6,0.0,0.01504491
2024-04-11,19:05,73.7,25.5,73.7,73.7,16.5,17.4,13.7,150,0.0,0.01085902
2024-04-11,19:10,73.2,22.7,73.2,73.2,14.9,17.1,13.1,149.4,0.0,0.00751945
2024-04-11,19:15,73.3,24.7,73.3,73.3,16.2,16.4,13.8,153,0.0,0.005418372
2024-04-11,19:20,72.4,23,72.4,72.4,15.6,14.4,11.4,150,0.0,0.003404466
2024-04-11,19:25,72.2,23.1,72.2,72.2,15.7,14.7,11.9,152.4,0.0,0.001894549
2024-04-11,19:30,71.7,23.6,71.7,71.7,16.3,14.4,11.1,152.3,0.0,0.001074763
2024-04-11,19:35,71.6,22.8,71.6,71.6,15.9,12.1,10.7,153.2,0.0,0.0005748329
2024-04-11,19:40,70.8,22.9,70.8,70.8,16.4,11.9,9.9,153.7,0.0,0.0002570613
2024-04-11,19:45,70.7,23.8,70.7,70.7,17.1,10.6,9.5,154.3,0.0,0.0001032275
2024-04-11,19:50,69.9,22.9,69.9,69.9,16.9,9.6,8.7,157.3,0.0,0.00004453148
2024-04-11,19:55,69.4,22.2,69.4,69.4,16.7,9.7,8.5,157.8,0.0,0.00001012102
2024-04-11,20:00,68.5,21.8,68.5,68.5,16.9,9.4,8.1,162.4,0.0,0.000002024221
2024-04-11,20:05,68.2,21.5,68.2,68.2,16.9,9,7.6,163.2,0.0,0
2024-04-11,20:10,67.7,21.7,67.7,67.7,17.3,8.1,7.1,159.3,0.0,0
2024-04-11,20:15,67.1,21.9,67.1,67.1,17.8,9.2,7.8,159.2,0.0,0
2024-04-11,20:20,66.6,22.3,66.6,66.6,18.5,9,7,163.2,0.0,0
2024-04-11,20:25,66.2,21.5,66.2,66.2,18.1,6.7,6.2,166.1,0.0,0
2024-04-11,20:30,65.7,21,65.7,65.7,18.0,7.1,6.4,166.1,0.0,0
2024-04-11,20:35,64.9,20.6,64.9,64.9,18.1,7.2,6.4,171.1,0.0,0
2024-04-11,20:40,64.6,20.8,64.6,64.6,18.5,7.4,6.7,169.5,0.0,0
2024-04-11,20:45,64,20.6,64.0,64,18.7,7.1,6.5,171.6,0.0,0
2024-04-11,20:50,63.8,20.3,63.8,63.8,18.7,6.7,5.9,170.5,0.0,0
2024-04-11,20:55,63.1,20.3,63.1,63.1,19.1,5.8,5.4,167,0.0,0
2024-04-11,21:00,62.6,21.5,62.6,62.6,20.5,6.2,5.6,163,0.0,0
2024-04-11,21:05,62.4,20.2,62.4,62.4,19.5,6.2,5.4,169.4,0.0,0
2024-04-11,21:10,62.5,20.7,62.5,62.5,19.9,5.1,1.5,176.4,0.0,0
2024-04-11,21:15,62.3,20.9,62.3,62.3,20.2,0,0,0,0.0,0
2024-04-11,21:20,61.4,19.9,61.4,61.4,19.9,0,0,0,0.0,0
2024-04-11,21:25,60.6,21.1,60.6,60.6,21.6,0.8,0,180.2,0.0,0
2024-04-11,21:30,61.2,21.9,61.2,61.2,21.9,7.1,5.4,180.1,0.0,0
2024-04-11,21:35,61.3,22.2,61.3,61.3,22.1,7.1,6.1,182.9,0.0,0
2024-04-11,21:40,61,22.3,61.0,61,22.4,7.2,6.2,185.3,0.0,0
2024-04-11,21:45,60.5,22.1,60.5,60.5,22.6,7.1,6.4,182,0.0,0
2024-04-11,21:50,60.9,21.5,60.9,60.9,21.7,8,7,177.4,0.0,0
2024-04-11,21:55,61.9,21.6,61.9,61.9,21.1,8.7,7.4,171.6,0.0,0
2024-04-11,22:00,61.7,22.1,61.7,61.7,21.7,8.7,7.1,171.8,0.0,0
2024-04-11,22:05,61.2,21.7,61.2,61.2,21.7,6.9,6,177.9,0.0,0
2024-04-11,22:10,60.6,22.3,60.6,60.6,22.7,5.5,4.9,180.7,0.0,0
2024-04-11,22:15,60,22.7,60.0,60,23.6,5.6,4.8,183.2,0.0,0
2024-04-11,22:20,59.3,21.5,59.3,59.3,23.0,5.5,4.7,179,0.0,0
2024-04-11,22:25,59.2,22.5,59.2,59.2,24.1,5.6,2.4,183.9,0.0,0
2024-04-11,22:30,59.1,23,59.1,59.1,24.7,5.8,0.3,179.8,0.0,0
2024-04-11,22:35,58.6,21.9,58.6,58.6,24.0,6.3,5.7,180.2,0.0,0
2024-04-11,22:40,57.9,21.2,57.9,57.9,24.0,6.2,5.6,176.2,0.0,0
2024-04-11,22:45,58,22.1,58.0,58,24.7,6.2,5.7,177.9,0.0,0
2024-04-11,22:50,58.1,21.6,58.1,58.1,24.2,6.5,6,175,0.0,0
2024-04-11,22:55,57.4,22.3,57.4,57.4,25.5,6.3,5.8,170.2,0.0,0
2024-04-11,23:00,56.7,21.9,56.7,56.7,25.7,5.1,3.5,166.5,0.0,0
2024-04-11,23:05,56.6,23.8,56.6,56.6,28.0,5.3,4.7,158.4,0.0,0
2024-04-11,23:10,56.9,24.3,56.9,56.9,28.2,4.9,4.4,151.1,0.0,0
2024-04-11,23:15,56.7,25.6,56.7,56.7,30.0,4.9,4,130.3,0.0,0
2024-04-11,23:20,54.3,27,54.3,54.3,34.7,5.8,4.7,118.7,0.0,0
2024-04-11,23:25,53,26.2,53.0,53,35.2,0,0,0,0.0,0
2024-04-11,23:30,54.2,23.4,54.2,54.2,30.0,0,0,0,0.0,0
2024-04-11,23:35,54.1,23,54.1,54.1,29.6,0,0,0,0.0,0
2024-04-11,23:40,53.9,22.4,53.9,53.9,29.2,0,0,0,0.0,0
2024-04-11,23:45,53.8,22,53.8,53.8,28.7,0,0,0,0.0,0
2024-04-11,23:50,53.9,22.3,53.9,53.9,28.9,0,0,0,0.0,0
2024-04-11,23:55,54.1,22.5,54.1,54.1,28.9,0,0,0,0.0,0
2024-04-12,00:00,54.4,21.9,54.4,54.4,28.0,0,0,0,0.0,0
2024-04-12,00:05,54.8,21.7,54.8,54.8,27.2,0,0,0,0.0,0
2024-04-12,00:10,54.4,23.1,54.4,54.4,29.5,0,0,0,0.0,0
2024-04-12,00:15,54.7,25.3,54.7,54.7,31.8,0,0,0,0.0,0
2024-04-12,00:20,54.1,25.1,54.1,54.1,32.3,4.4,0.4,133.8,0.0,0
2024-04-12,00:25,54.2,24.8,54.2,54.2,31.9,5.5,4.5,141.8,0.0,0
2024-04-12,00:30,54.2,23.4,54.2,54.2,30.0,6.3,5.6,159.4,0.0,0
2024-04-12,00:35,54.2,21.9,54.2,54.2,28.2,6.5,5.8,168.1,0.0,0
2024-04-12,00:40,53.1,20.9,53.1,53.1,28.0,6.2,5.1,170,0.0,0
2024-04-12,00:45,52.2,25.6,52.2,52.2,35.3,6,4,150.9,0.0,0
2024-04-12,00:50,52.5,23.1,52.5,52.5,31.5,5.5,1.7,151.4,0.0,0
2024-04-12,00:55,53,25.8,53.0,53,34.7,6.7,4.6,142.5,0.0,0
2024-04-12,01:00,54,24,54.0,54,30.9,6,5.1,138.1,0.0,0
2024-04-12,01:05,54.4,24.4,54.4,54.4,31.1,6.7,5.9,142.1,0.0,0
2024-04-12,01:10,54.7,23.4,54.7,54.7,29.5,8,6.7,144.4,0.0,0
2024-04-12,01:15,54.7,24.5,54.7,54.7,30.8,7.8,7,149.6,0.0,0
2024-04-12,01:20,53.7,25.6,53.7,53.7,33.5,6.3,5.5,150.5,0.0,0
2024-04-12,01:25,53.4,23.8,53.4,53.4,31.5,6.3,5.4,137.3,0.0,0
2024-04-12,01:30,52.3,24.7,52.3,52.3,33.9,5.6,4.8,135.3,0.0,0
2024-04-12,01:35,51.5,24.6,51.5,51.5,34.8,4.6,2.8,145.1,0.0,0
2024-04-12,01:40,51.5,24.1,51.5,51.5,34.1,0,0,0,0.0,0
2024-04-12,01:45,51.9,22.8,51.9,51.9,31.8,0,0,0,0.0,0
2024-04-12,01:50,51.8,21.5,51.8,51.8,30.2,0,0,0,0.0,0
2024-04-12,01:55,51.8,21.2,51.8,51.8,29.8,0,0,0,0.0,0
2024-04-12,02:00,52.1,21.2,52.1,52.1,29.5,0,0,0,0.0,0
2024-04-12,02:05,52,24.4,52.0,52,34.0,0,0,0,0.0,0
2024-04-12,02:10,51.5,24.2,51.5,51.5,34.3,0,0,0,0.0,0
2024-04-12,02:15,50.5,21.9,50.5,50.5,32.3,0,0,0,0.0,0
2024-04-12,02:20,50.3,20.5,50.3,50.3,30.6,0,0,0,0.0,0
2024-04-12,02:25,50.7,20.6,50.7,50.7,30.3,0,0,0,0.0,0
2024-04-12,02:30,50.9,20.7,50.9,50.9,30.2,0,0,0,0.0,0
2024-04-12,02:35,50.9,24.5,50.9,50.9,35.5,0,0,0,0.0,0
2024-04-12,02:40,51.2,23.5,51.2,51.2,33.7,0,0,0,0.0,0
2024-04-12,02:45,51.8,23.9,51.8,51.8,33.4,0,0,0,0.0,0
2024-04-12,02:50,52.3,22.1,52.3,52.3,30.3,0,0,0,0.0,0
2024-04-12,02:55,52.3,21.3,52.3,52.3,29.5,0,0,0,0.0,0
2024-04-12,03:00,51.9,21.5,51.9,51.9,30.1,0,0,0,0.0,0
2024-04-12,03:05,50.9,22.2,50.9,50.9,32.2,0,0,0,0.0,0
2024-04-12,03:10,48.3,24,48.3,48.3,38.3,0,0,0,0.0,0
2024-04-12,03:15,47.3,24.5,47.3,47.3,40.6,0,0,0,0.0,0
2024-04-12,03:20,49.6,24,49.6,49.6,36.4,0,0,0,0.0,0
2024-04-12,03:25,50.9,22.1,50.9,50.9,32.0,0,0,0,0.0,0
2024-04-12,03:30,51.7,22,51.7,51.7,30.9,0,0,0,0.0,0
2024-04-12,03:35,52.3,23.3,52.3,52.3,32.1,0,0,0,0.0,0
2024-04-12,03:40,51.9,28.5,51.9,51.9,40.2,0,0,0,0.0,0
2024-04-12,03:45,49,27.4,49.0,49,43.0,0,0,0,0.0,0
2024-04-12,03:50,50,26.9,50.0,50,40.6,0,0,0,0.0,0
2024-04-12,03:55,47.5,23.6,47.5,47.5,38.7,0,0,0,0.0,0
2024-04-12,04:00,47.1,21.9,47.1,47.1,36.6,0,0,0,0.0,0
2024-04-12,04:05,49.5,24,49.5,49.5,36.6,0,0,0,0.0,0
2024-04-12,04:10,50.3,25.9,50.3,50.3,38.3,0,0,0,0.0,0
2024-04-12,04:15,50,24.2,50.0,50,36.2,0,0,0,0.0,0
2024-04-12,04:20,48.7,27.7,48.7,48.7,44.0,0,0,0,0.0,0
2024-04-12,04:25,46.7,24.5,46.7,46.7,41.4,0,0,0,0.0,0
2024-04-12,04:30,46.3,25.4,46.3,46.3,43.5,0,0,0,0.0,0
2024-04-12,04:35,44.9,25.9,44.9,44.9,47.2,0,0,0,0.0,0
2024-04-12,04:40,45.2,26.5,45.2,45.2,47.7,0,0,0,0.0,0
2024-04-12,04:45,43.5,24.5,43.5,43.5,46.9,0,0,0,0.0,0
2024-04-12,04:50,42.1,18.8,42.1,42.1,38.9,0,0,0,0.0,0
2024-04-12,04:55,40.8,21.6,40.8,40.8,46.0,0,0,0,0.0,0
2024-04-12,05:00,40.1,20.9,40.1,40.1,45.9,0,0,0,0.0,0
2024-04-12,05:05,39.9,18.8,39.9,39.9,42.2,0,0,0,0.0,0
2024-04-12,05:10,39.5,19.3,39.5,39.5,43.8,0,0,0,0.0,0
2024-04-12,05:15,39.1,20.9,39.1,39.1,47.7,0,0,0,0.0,0
2024-04-12,05:20,39.5,19,39.5,39.5,43.3,0,0,0,0.0,0
2024-04-12,05:25,39.7,21.4,39.7,39.7,47.7,0,0,0,0.0,0
2024-04-12,05:30,38.9,19.8,38.9,38.9,45.7,0,0,0,0.0,0
2024-04-12,05:35,39.3,19.7,39.3,39.3,45.0,0,0,0,0.0,0
2024-04-12,05:40,39.4,21.4,39.4,39.4,48.0,0,0,0,0.0,0
2024-04-12,05:45,39.3,17.7,39.3,39.3,41.2,0,0,0,0.0,0
2024-04-12,05:50,38.6,18.5,38.6,38.6,43.9,0,0,0,0.0,0
2024-04-12,05:55,38.5,22.1,38.5,38.5,51.3,0,0,0,0.0,0
2024-04-12,06:00,39.9,25.6,39.9,39.9,56.1,0,0,0,0.0,0
2024-04-12,06:05,39.7,21.9,39.7,39.7,48.5,0,0,0,0.0,0
2024-04-12,06:10,39.8,21.2,39.8,39.8,47.0,0,0,0,0.0,0
2024-04-12,06:15,39.3,21.7,39.3,39.3,49.0,0,0,0,0.0,0.00009523342
2024-04-12,06:20,39.4,17.9,39.4,39.4,41.4,0,0,0,0.0,0.0004559025
2024-04-12,06:25,38.2,14.9,38.2,38.2,38.2,0,0,0,0.0,0.001240107
2024-04-12,06:30,37.5,18,37.5,37.5,45.0,0,0,0,0.0,0.00153394
2024-04-12,06:35,37.6,19.4,37.6,37.6,47.6,0,0,0,0.0,0.001817618
2024-04-12,06:40,37.9,20,37.9,37.9,48,0,0,0,0.0,0.003288837
2024-04-12,06:45,38.3,21.8,38.3,38.3,50.9,0,0,0,0.0,0.005355748
2024-04-12,06:50,38.7,19.7,38.7,38.7,46.0,0,0,0,0.0,0.007185529
2024-04-12,06:55,38.9,21.8,38.9,38.9,50.0,0,0,0,0.0,0.0104502
2024-04-12,07:00,39.6,21.9,39.6,39.6,48.6,0,0,0,0.0,0.01652943
2024-04-12,07:05,40.3,21.6,40.3,40.3,47.0,0,0,0,0.0,0.02449743
2024-04-12,07:10,40.9,17.7,40.9,40.9,38.9,0,0,0,0.0,0.02752357
2024-04-12,07:15,41.6,21.9,41.6,41.6,45.2,0,0,0,0.0,0.03376043
2024-04-12,07:20,42.5,22.3,42.5,42.5,44.2,0,0,0,0.0,0.03133896
2024-04-12,07:25,43.9,19.3,43.9,43.9,36.9,0,0,0,0.0,0.03892389
2024-04-12,07:30,44.6,20.5,44.6,44.6,38,0,0,0,0.0,0.03439761
2024-04-12,07:35,45,24.4,45.0,45,44.0,0,0,0,0.0,0.04329923
2024-04-12,07:40,45.3,26,45.3,45.3,46.6,0,0,0,0.0,0.04767175
2024-04-12,07:45,46.2,26.9,46.2,46.2,46.7,0,0,0,0.0,0.04907307
2024-04-12,07:50,47.5,25.9,47.5,47.5,42.6,0,0,0,0.0,0.05448734
2024-04-12,07:55,48.9,24.5,48.9,48.9,38.2,0,0,0,0.0,0.05526266
2024-04-12,08:00,50.1,26.2,50.1,50.1,39.3,0,0,0,0.0,0.06240623
2024-04-12,08:05,51.3,22.6,51.3,51.3,32.3,0,0,0,0.0,0.06741986
2024-04-12,08:10,52.2,23.1,52.2,52.2,31.9,0,0,0,0.0,0.0653406
2024-04-12,08:15,52.9,24.7,52.9,52.9,33.2,0,0,0,0.0,0.08446708
2024-04-12,08:20,53.7,23.8,53.7,53.7,31.1,0,0,0,0.0,0.0862465
2024-04-12,08:25,54.8,24,54.8,54.8,30.1,0,0,0,0.0,0.0936291
2024-04-12,08:30,55.7,25.8,55.7,55.7,31.4,0,0,0,0.0,0.09515884
2024-04-12,08:35,57.3,25.4,57.3,57.3,29.2,0,0,0,0.0,0.109079
2024-04-12,08:40,58,24.8,58.0,58,27.6,0,0,0,0.0,0.1061941
2024-04-12,08:45,58.5,24.4,58.5,58.5,26.8,0,0,0,0.0,0.1228064
2024-04-12,08:50,58.7,24.5,58.7,58.7,26.7,0,0,0,0.0,0.1217283
2024-04-12,08:55,59.4,26.7,59.4,59.4,28.6,0,0,0,0.0,0.1350063
2024-04-12,09:00,59.6,24.4,59.6,59.6,25.7,0,0,0,0.0,0.134019
2024-04-12,09:05,60.1,26.2,60.1,60.1,27.2,0,0,0,0.0,0.1463881
2024-04-12,09:10,60.6,26.7,60.6,60.6,27.3,0,0,0,0.0,0.1414907
2024-04-12,09:15,60.9,25.2,60.9,60.9,25.4,0,0,0,0.0,0.1550913
2024-04-12,09:20,61.6,25,61.6,61.6,24.6,10.6,2.4,148.5,0.0,0.1553978
2024-04-12,09:25,60.8,25.9,60.8,60.8,26.2,11.7,9.5,151.2,0.0,0.1213642
2024-04-12,09:30,61.5,25.5,61.5,61.5,25.2,11.3,8.9,157.6,0.0,0.148841
2024-04-12,09:35,62.1,24.7,62.1,62.1,23.8,11.7,10.2,163.9,0.0,0.145226
2024-04-12,09:40,62.8,25.9,62.8,62.8,24.5,11,8.5,164,0.0,0.1460861
2024-04-12,09:45,62.5,26.3,62.5,62.5,25.2,11.9,9.5,161,0.0,0.14855
2024-04-12,09:50,63.1,26.5,63.1,63.1,24.8,11.2,8.8,163.8,0.0,0.1613474
2024-04-12,09:55,62.9,25,62.9,62.9,23.4,10.6,8.8,153.5,0.0,0.1714561
2024-04-12,10:00,64.2,26.1,64.2,64.2,23.5,11.5,9.3,168.5,0.0,0.1910931
2024-04-12,10:05,65,25.6,65.0,65,22.3,12.4,8,163.3,0.0,0.195072
2024-04-12,10:10,65.5,26.5,65.5,65.5,22.9,12.6,10,158.2,0.0,0.1753574
2024-04-12,10:15,65.4,25.4,65.4,65.4,21.9,13.9,10,156.9,0.0,0.1644756
2024-04-12,10:20,66.2,26.2,66.2,66.2,22,12.8,10,167.8,0.0,0.167508
2024-04-12,10:25,66.4,26.5,66.4,66.4,22.1,12.4,10.3,163.3,0.0,0.1884964
2024-04-12,10:30,67.2,26.4,67.2,67.2,21.5,12.1,9.4,158.7,0.0,0.1857856
2024-04-12,10:35,67.2,25.1,67.2,67.2,20.3,12.2,9.8,160,0.0,0.2027261
2024-04-12,10:40,67.6,27,67.6,67.6,21.6,12.6,9.3,156.2,0.0,0.182269
2024-04-12,10:45,68.8,27.9,68.8,68.8,21.5,12.8,9.5,145.3,0.0,0.1989284
2024-04-12,10:50,69.5,25.5,69.5,69.5,19.0,13.1,10,166.1,0.0,0.1964826
2024-04-12,10:55,69.8,26.6,69.8,69.8,19.8,12.8,9.8,166,0.0,0.1619987
2024-04-12,11:00,69.9,26.7,69.9,69.9,19.8,14.4,10,165.2,0.0,0.1643681
2024-04-12,11:05,71.2,26.3,71.2,71.2,18.6,14,10.6,169.1,0.0,0.1869995
2024-04-12,11:10,71.7,26.8,71.7,71.7,18.7,14.9,11,166.8,0.0,0.2199207
2024-04-12,11:15,72.4,25.4,72.4,72.4,17.3,15.1,12,170.2,0.0,0.22064
2024-04-12,11:20,72.7,25.3,72.7,72.7,17.0,15.5,12,162.4,0.0,0.2138601
2024-04-12,11:25,73.2,24.8,73.2,73.2,16.3,17.8,12.9,162,0.0,0.2370218
2024-04-12,11:30,73.7,24.8,73.7,73.7,16.1,16.2,12.4,162.5,0.0,0.226302
2024-04-12,11:35,74.3,25.6,74.3,74.3,16.3,17.1,12.1,161.4,0.0,0.2513035
2024-04-12,11:40,75.3,27.6,75.3,75.3,17.1,16.5,14,163.9,0.0,0.268475
2024-04-12,11:45,75.3,24.1,75.3,75.3,14.8,16.4,13,160,0.0,0.2261944
2024-04-12,11:50,76.2,25.6,76.2,76.2,15.3,18.7,12.7,167.4,0.0,0.2456506
2024-04-12,11:55,76,22.8,76.0,76,13.7,18.1,14.6,152.4,0.0,0.2654512
2024-04-12,12:00,75.9,26.1,75.9,75.9,15.8,17.2,14.1,149.3,0.0,0.2440704
2024-04-12,12:05,76.6,23,76.6,76.6,13.5,16.2,13.2,162.5,0.0,0.2474283
2024-04-12,12:10,77.5,24.7,77.5,77.5,14.1,17.8,13.1,162.1,0.0,0.2361766
2024-04-12,12:15,77.3,26.1,77.3,77.3,15.0,18.9,14.7,156.7,0.0,0.2024385
2024-04-12,12:20,77.1,24.7,77.1,77.1,14.3,18.9,14.5,160.9,0.0,0.2066278
2024-04-12,12:25,77.6,25.8,77.6,77.6,14.7,19.2,14.4,154.1,0.0,0.2662391
2024-04-12,12:30,77.4,23.8,77.4,77.4,13.7,18.3,15.7,158.9,0.0,0.227173
2024-04-12,12:35,78.4,26.3,78.4,78.4,14.6,15.3,11.7,162.8,0.0,0.2144335
2024-04-12,12:40,78.5,26.8,78.5,78.5,14.9,20.1,16.1,169.7,0.0,0.228347
2024-04-12,12:45,78.5,23.6,78.5,78.5,13,20.8,16.6,164.9,0.0,0.1885544
2024-04-12,12:50,78.3,22.6,78.3,78.3,12.6,23.3,16.8,171.8,0.0,0.1794146
2024-04-12,12:55,78.8,23,78.8,78.8,12.6,24.2,18.6,166.9,0.0,0.2069781
2024-04-12,13:00,78.8,23.4,78.8,78.8,12.8,24.9,20.5,171.4,0.0,0.2420399
2024-04-12,13:05,79.3,26.8,79.3,79.3,14.5,22.6,18.2,172.7,0.0,0.2980112
2024-04-12,13:10,80.4,25.2,80.4,80.4,13.1,23.3,17.8,155.8,0.0,0.2451538
2024-04-12,13:15,79,23.5,79.0,79,12.8,24.4,20.3,160.1,0.0,0.2349851
2024-04-12,13:20,79.7,26.1,79.7,79.7,13.9,25.1,19.7,157.1,0.0,0.2707573
2024-04-12,13:25,80.7,26.8,80.7,80.7,13.9,25.1,18.8,163.2,0.0,0.3009622
2024-04-12,13:30,81.1,22.4,81.1,81.1,11.4,29.9,21.1,166,0.0,0.2506835
2024-04-12,13:35,80.3,21.7,80.3,80.3,11.3,31.2,24.4,162.3,0.0,0.1876952
2024-04-12,13:40,80.2,22,80.2,80.2,11.5,30.8,24,165.9,0.0,0.1443776
2024-04-12,13:45,80.5,20.8,80.5,80.5,10.8,24.8,21.3,165.2,0.0,0.1528883
2024-04-12,13:50,80.5,20.9,80.5,80.5,10.9,32.8,22.4,165.8,0.0,0.1441422
2024-04-12,13:55,80.5,20.3,80.5,80.5,10.6,28.5,22.5,168.5,0.0,0.1746596
2024-04-12,14:00,80.4,19.6,80.4,80.4,10.3,28,23.4,165.1,0.0,0.1836704
2024-04-12,14:05,81.8,19.3,81.8,81.8,9.8,29,25.3,167.7,0.0,0.2206955
2024-04-12,14:10,81.3,19.3,81.3,81.3,9.9,30.3,24.8,174.3,0.0,0.1674071
2024-04-12,14:15,81,23,81.0,81,11.7,28.5,23.5,159.2,0.0,0.2672675
2024-04-12,14:20,81.8,21.5,81.8,81.8,10.7,27.4,22.5,165.1,0.0,0.2077739
2024-04-12,14:25,81.1,20,81.1,81.1,10.3,30.3,24,173.4,0.0,0.1404369
2024-04-12,14:30,80.8,20.6,80.8,80.8,10.7,29.4,25.2,162.4,0.0,0.1552408
2024-04-12,14:35,81.3,21.9,81.3,81.3,11.1,25.6,21.8,176.3,0.0,0.185359
2024-04-12,14:40,82.2,20.5,82.2,82.2,10.1,28,21.9,166,0.0,0.1745513
2024-04-12,14:45,82.2,21.8,82.2,82.2,10.7,31,22.3,166.8,0.0,0.2347468
2024-04-12,14:50,81.4,21.2,81.4,81.4,10.7,29.4,23.5,158.3,0.0,0.2202793
2024-04-12,14:55,82.4,20.7,82.4,82.4,10.2,27.6,22.3,169.4,0.0,0.2101753
2024-04-12,15:00,81.6,18.3,81.6,81.6,9.4,26.4,21.7,164,0.0,0.163494
2024-04-12,15:05,82.2,22.2,82.2,82.2,10.9,25.1,20.5,161.5,0.0,0.2060909
2024-04-12,15:10,82.6,19.4,82.6,82.6,9.5,30.5,21.9,167.1,0.0,0.1978818
2024-04-12,15:15,82,22.6,82.0,82,11.1,26.4,21.2,169.3,0.0,0.2270907
2024-04-12,15:20,82.2,22.5,82.2,82.2,11.0,24.4,20.6,157.9,0.0,0.1960152
2024-04-12,15:25,82.8,20.7,82.8,82.8,10,25.3,21.8,167.1,0.0,0.2265842
2024-04-12,15:30,82.4,22.6,82.4,82.4,11.0,28.7,21.9,161.8,0.0,0.217456
2024-04-12,15:35,82.2,20,82.2,82.2,9.9,28.7,21.5,166.3,0.0,0.2130138
2024-04-12,15:40,82.6,21.1,82.6,82.6,10.3,23.2,17.5,167.1,0.0,0.2050178
2024-04-12,15:45,82.2,23.8,82.2,82.2,11.6,21.9,17.3,157.9,0.0,0.2046022
2024-04-12,15:50,82.5,20.4,82.5,82.5,10,26.9,20.4,158.7,0.0,0.1901194
2024-04-12,15:55,82.8,23.1,82.8,82.8,11.1,24.9,19.2,170.5,0.0,0.1728874
2024-04-12,16:00,82.5,18.8,82.5,82.5,9.3,23.2,17.5,168.7,0.0,0.1706835
2024-04-12,16:05,82.6,22.7,82.6,82.6,11.0,23.2,15.9,167.4,0.0,0.1673552
2024-04-12,16:10,82.2,20.7,82.2,82.2,10.2,23.7,18,159.9,0.0,0.1385469
2024-04-12,16:15,82,20,82.0,82,10.0,24.4,19.7,157.6,0.0,0.1276469
2024-04-12,16:20,82.7,20.6,82.7,82.7,10,18.3,16.3,157.8,0.0,0.1853268
2024-04-12,16:25,83.3,20,83.3,83.3,9.6,26.4,17.6,164.2,0.0,0.1731697
2024-04-12,16:30,82.9,20.5,82.9,82.9,9.9,24.2,19.1,168,0.0,0.15849
2024-04-12,16:35,83,19.9,83.0,83,9.6,26.2,19.4,172.1,0.0,0.1465186
2024-04-12,16:40,82.6,21.9,82.6,82.6,10.6,27.6,23,160.7,0.0,0.1513892
2024-04-12,16:45,82.5,22.9,82.5,82.5,11.1,21.5,17.6,153.7,0.0,0.1374439
2024-04-12,16:50,82.2,20.4,82.2,82.2,10.1,26.2,18.1,149.8,0.0,0.1496168
2024-04-12,16:55,82.6,23.7,82.6,82.6,11.4,23.2,18.1,163.3,0.0,0.1287051
2024-04-12,17:00,83,24.7,83.0,83,11.8,22.6,16.6,159.9,0.0,0.1448553
2024-04-12,17:05,82.4,24.3,82.4,82.4,11.8,19.8,16.9,145.3,0.0,0.1038155
2024-04-12,17:10,82.4,22.4,82.4,82.4,10.9,23.2,17,147.6,0.0,0.1115642
2024-04-12,17:15,82.1,24,82.1,82.1,11.8,23.2,17.4,154.4,0.0,0.0814795
2024-04-12,17:20,82.4,22.8,82.4,82.4,11.1,22.4,17.4,149.4,0.0,0.084679
2024-04-12,17:25,82.4,25.7,82.4,82.4,12.5,23,18.3,157.6,0.0,0.1119486
2024-04-12,17:30,82.8,24.9,82.8,82.8,11.9,18.7,15.1,161.1,0.0,0.1194365
2024-04-12,17:35,83.3,20.8,83.3,83.3,9.9,23.5,16.5,164.3,0.0,0.1038947
2024-04-12,17:40,82.3,22.7,82.3,82.3,11.1,23.3,18,161.8,0.0,0.06207843
2024-04-12,17:45,82.3,19.9,82.3,82.3,9.8,24.6,19,162.7,0.0,0.03123704
2024-04-12,17:50,81.8,19.3,81.8,81.8,9.8,22.8,17.8,159.4,0.0,0.0286543
2024-04-12,17:55,82,21.3,82.0,82,10.6,20.6,17.5,165.6,0.0,0.04021908
2024-04-12,18:00,82,19.6,82.0,82,9.8,21.5,18.9,156.4,0.0,0.05501715
2024-04-12,18:05,81.1,22.1,81.1,81.1,11.2,17.8,14.4,150.1,0.0,0.04394253
2024-04-12,18:10,81.8,21,81.8,81.8,10.5,23.9,17.6,161.7,0.0,0.06913021
2024-04-12,18:15,81.8,18.5,81.8,81.8,9.4,19.6,16.9,156.3,0.0,0.07316716
2024-04-12,18:20,81.8,21,81.8,81.8,10.5,23.3,18.1,155.7,0.0,0.0684884
2024-04-12,18:25,81,22.1,81.0,81,11.3,22.8,18.5,149.9,0.0,0.05136742
2024-04-12,18:30,80.7,21.5,80.7,80.7,11.1,25.5,20,146.8,0.0,0.04700444
2024-04-12,18:35,79.9,22.9,79.9,79.9,12.1,24.2,18.9,148.1,0.0,0.0327538
2024-04-12,18:40,80.2,21.7,80.2,80.2,11.4,24,20,146.2,0.0,0.01915853
2024-04-12,18:45,79.8,21.1,79.8,79.8,11.2,22.6,18.9,143.4,0.0,0.01313571
2024-04-12,18:50,78.5,21.8,78.5,78.5,12.1,21.2,16.2,145.5,0.0,0.01213593
2024-04-12,18:55,78.3,21,78.3,78.3,11.8,18.9,15.5,148.7,0.0,0.01244377
2024-04-12,19:00,78.2,20.8,78.2,78.2,11.7,18.1,14,147.5,0.0,0.01681867
2024-04-12,19:05,78.3,21.4,78.3,78.3,11.9,19.6,16.4,151.9,0.0,0.01243985
2024-04-12,19:10,78.5,22.4,78.5,78.5,12.4,20.1,16.3,154.3,0.0,0.009167803
2024-04-12,19:15,77.5,21.8,77.5,77.5,12.5,20.5,15.5,149.7,0.0,0.006148393
2024-04-12,19:20,77,23.3,77.0,77,13.5,17.6,15.5,146.6,0.0,0.004659024
2024-04-12,19:25,76.5,23.7,76.5,76.5,14.0,18.3,15.1,147.8,0.0,0.002950946
2024-04-12,19:30,76.5,24,76.5,76.5,14.2,22.3,17.3,147.9,0.0,0.002060445
2024-04-12,19:35,76,24.3,76.0,76,14.6,19.8,16.5,145.7,0.0,0.001352088
2024-04-12,19:40,75.8,23.1,75.8,75.8,14.0,19.8,15.7,150.3,0.0,0.0003400473
2024-04-12,19:45,75.7,23.5,75.7,75.7,14.3,21.9,17.2,148,0.0,0.00009513299
2024-04-12,19:50,75.1,24.7,75.1,75.1,15.3,21.2,16.7,145.3,0.0,0.00006072381
2024-04-12,19:55,74.9,23.3,74.9,74.9,14.5,19.9,15.8,146.3,0.0,0.00005060222
2024-04-12,20:00,74.6,24.1,74.6,74.6,15.1,19.9,16.5,146.4,0.0,0.00001821676
2024-04-12,20:05,74.3,24.3,74.3,74.3,15.4,18.5,15.7,143.8,0.0,0.000004048143
2024-04-12,20:10,74,23.5,74.0,74,15.1,20.1,15.7,143.6,0.0,0.000006072226
2024-04-12,20:15,73.6,25.4,73.6,73.6,16.5,21.7,16.6,145.7,0.0,0
2024-04-12,20:20,73.5,24.7,73.5,73.5,16.1,22.3,16.9,145,0.0,0
2024-04-12,20:25,73.2,25.4,73.2,73.2,16.7,21.9,17.8,145.2,0.0,0.000002024012
2024-04-12,20:30,72.8,25.6,72.8,72.8,17.1,22.1,17.2,144.5,0.0,0.00000202406
2024-04-12,20:35,72.4,25.7,72.4,72.4,17.5,18.9,15.2,145.9,0.0,0.00000404838
2024-04-12,20:40,71.9,26,71.9,71.9,17.9,17.4,13.4,140.1,0.0,0
2024-04-12,20:45,71.7,25.9,71.7,71.7,18.0,16.4,13.6,139.5,0.0,0
2024-04-12,20:50,70.8,26.2,70.8,70.8,18.8,14.6,11.9,138.2,0.0,0
2024-04-12,20:55,70.7,26.1,70.7,70.7,18.7,15.5,12,137.2,0.0,0
2024-04-12,21:00,70.3,26.4,70.3,70.3,19.3,14,10.7,133.2,0.0,0.000002024256
2024-04-12,21:05,69.9,26.4,69.9,69.9,19.5,13.7,11.2,134,0.0,0
2024-04-12,21:10,69.3,25.5,69.3,69.3,19.2,11.9,10,131.1,0.0,0.000004048556
2024-04-12,21:15,68.5,26.4,68.5,68.5,20.5,11.2,8.6,134.6,0.0,0